Regional Weather Roundup
Issued by NWS

Home | Current Version | Previous Version | Graphics & Text | Print | Product List | Glossary On
Versions: 1 2 3 4 5 6 7 8 9 10 11 12 13 14 15 16 17 18 19 20 21 22 23 24 25 26 27 28 29 30 31 32 33 34 35 36 37 38 39 40 41 42 43 44 45 46 47 48 49 50
203
ASUS43 KLMK 030210
RWRKY
KENTUCKY REGIONAL WEATHER ROUNDUP
NATIONAL WEATHER SERVICE LOUISVILLE KY
1000 PM EDT MON MAY 02 2016

NOTE "FAIR" INDICATES FEW OR NO CLOUDS BELOW 12,000 FEET
WITH NO SIGNIFICANT WEATHER AND/OR OBSTRUCTIONS TO VISIBILITY.

KYZ001>023-026-027-061>063-070>075-030300-
WESTERN AND SOUTH CENTRAL KENTUCKY

CITY           SKY/WX    TMP DP  RH WIND       PRES   REMARKS
PADUCAH        CLEAR     56  48  74 N5        29.99R
HENDERSON      CLOUDY    57  46  67 NW6       29.98R
OWENSBORO      CLOUDY    59  50  72 N9        29.98R
HOPKINSVILLE   NOT AVBL
BOWLING GREEN  CLOUDY    61  57  87 W6        29.96R
GLASGOW        CLOUDY    58  58 100 CALM      29.95R
$$

KYZ024-025-028>034-038-045-046-053-030300-
NORTH CENTRAL KENTUCKY

CITY           SKY/WX    TMP DP  RH WIND       PRES   REMARKS
LOUISVILLE/SDF CLOUDY    60  49  66 NW9       29.95R
LOUISVILLE/LOU CLOUDY    61  50  67 NW6       29.96R
FORT KNOX      NOT AVBL
$$

KYZ035>037-039>044-047>052-055>060-089>105-030300-
NORTHEAST KENTUCKY

CITY           SKY/WX    TMP DP  RH WIND       PRES   REMARKS
LEXINGTON      CLOUDY    60  53  77 NW5       29.95R
COVINGTON      MOCLDY    57  51  80 NW6       29.93R
FRANKFORT      CLOUDY    60  51  72 NW3       29.93R
$$

KYZ054-064>069-076>088-106>120-030300-
SOUTHEAST KENTUCKY

CITY           SKY/WX    TMP DP  RH WIND       PRES   REMARKS
JACKSON        CLOUDY    59  57  93 CALM      29.94S
LONDON         CLOUDY    60  59  96 CALM      29.93F
SOMERSET       DRIZZLE   59  59 100 CALM      29.94S
MIDDLESBORO    CLOUDY    60  59  99 CALM      29.95F
MONTICELLO     CLOUDY    61  60  97 W9        29.95S
$$





USA.gov is the U.S. government's official web portal to all federal, state and local government web resources and services.